Weather History for La Paz, Mexico

Change the Weather History Date:

Sunday, March 30, 2014

  Actual Average Record
Temperature  
Mean Temperature 77 °F -  
Max Temperature 95 °F 85 °F 96 °F (2013)
Min Temperature 59 °F 57 °F 51 °F (2005)
Cooling Degree Days 12    
Growing Degree Days 27 (Base 50)    
Moisture  
Dew Point 39 °F    
Average Humidity 26    
Maximum Humidity 64    
Minimum Humidity 8    
Precipitation  
Precipitation 0.00 in - - ()
Sea Level Pressure  
Sea Level Pressure 29.94 in    
Wind  
Wind Speed 6 mph ()    
Max Wind Speed 14 mph    
Max Gust Speed -    
Visibility 11.4 miles    
Events      
Averages and records for this station are not official NWS values.
T = Trace of Precipitation, MM = Missing Value Source: Averaged Metar Reports

Daily Weather History Graph

Daily Weather History Graph

Search for Another Location

Airport:

Trip Planner

Search our weather history database for the weather conditions in past years. The results will help you decide how hot, cold, wet, or windy it might be!

Date:

Astronomy

Mar. 30, 2014 Rise Set
Actual Time 6:15 AM MST 6:36 PM MST
Civil Twilight 5:52 AM MST 6:59 PM MST
Nautical Twilight 5:26 AM MST 7:26 PM MST
Astronomical Twilight 4:59 AM MST 7:52 PM MST
Moon 6:03 AM MST (3/30) 6:49 PM MST (3/30)
Length of Visible Light 13h 06m
Length of Day
12h 21m
New Moon, 0% of the Moon is Illuminated
Mar 30
New Moon
Apr 7
First Quarter
Apr 15
Full
Apr 22
Last Quarter
Apr 29
New

Hourly Weather History & Observations

Time (MST) Temp. Dew Point Humidity Pressure Visibility Wind Dir Wind Speed Gust Speed Precip Events Conditions
4:50 AM 60 °F 46 °F 50% 29.91 in 2 mi South 2.2 mph - -  
6:05 AM 57.2 °F 42.8 °F 59% 29.94 in 12.0 mi SSE 6.9 mph - N/A   Clear
7:44 AM 64.4 °F 42.8 °F 45% 29.98 in 12.0 mi South 8.1 mph - N/A   Clear
7:50 AM 68 °F 46 °F 34% 29.96 in 12 mi South 2.2 mph - -  
8:41 AM 73.4 °F 44.6 °F 36% 29.99 in 12.0 mi South 9.2 mph - N/A   Clear
9:40 AM 82.4 °F 35.6 °F 19% 30.00 in 12.0 mi South 4.6 mph - N/A   Clear
10:50 AM 89 °F 37 °F 8% 29.99 in 19 mi West 4.5 mph - -  
10:50 AM 84.2 °F 28.4 °F 13% 29.99 in 12.0 mi North 6.9 mph - N/A   Clear
11:43 AM 86.0 °F 28.4 °F 12% 29.98 in 12.0 mi NNE 9.2 mph - N/A   Clear
12:47 PM 89.6 °F 28.4 °F 11% 29.95 in 12.0 mi NNE 9.2 mph - N/A   Clear
1:40 PM 89.6 °F 26.6 °F 10% 29.93 in 15.0 mi North 12.7 mph - N/A   Clear
1:50 PM 94 °F 40 °F 8% 29.93 in 19 mi NNW 8.9 mph - -  
2:41 PM 91.4 °F 28.4 °F 10% 29.90 in 10.0 mi North 13.8 mph - N/A   Clear
3:43 PM 91.4 °F 28.4 °F 10% 29.88 in 10.0 mi North 11.5 mph - N/A   Clear
4:45 PM 94 °F 42 °F 9% 29.86 in 19 mi North 6.7 mph - -  
4:49 PM 91.4 °F 28.4 °F 10% 29.87 in 10.0 mi North 9.2 mph - N/A   Clear
5:45 PM 91.4 °F 28.4 °F 10% 29.88 in 10.0 mi West 9.2 mph - N/A   Clear
6:40 PM 84.2 °F 28.4 °F 13% 29.90 in 10.0 mi SSW 9.2 mph - N/A   Clear
7:41 PM 77.0 °F 41.0 °F 28% 29.93 in 10.0 mi SSW 9.2 mph - N/A   Clear
7:45 PM 81 °F 63 °F 44% 29.89 in 2 mi South 6.7 mph - -  
8:44 PM 71.6 °F 50.0 °F 46% 29.96 in 10.0 mi South 11.5 mph - N/A   Clear
9:52 PM 69.8 °F 53.6 °F 56% 29.98 in 10.0 mi South 9.2 mph - N/A   Clear
10:41 PM 68.0 °F 55.4 °F 64% 29.99 in 10.0 mi South 9.2 mph - N/A   Clear